Time,TemperatureF,DewpointF,PressureIn,WindDirection,WindDirectionDegrees,WindSpeedMPH,WindSpeedGustMPH,Humidity,HourlyPrecipIn,Conditions,Clouds,dailyrainin,SoftwareType,DateUTC
2013-07-29 00:01:00,55.9,41.0,29.14,North,0,0.0,0.0,57,0.00,,,0.00,meteohub,2013-07-29 04:01:00,
2013-07-29 00:02:00,55.9,41.0,29.14,North,0,0.0,0.0,57,0.00,,,0.00,meteohub,2013-07-29 04:02:00,
2013-07-29 00:07:00,55.9,41.0,29.14,North,0,0.0,0.0,57,0.00,,,0.00,meteohub,2013-07-29 04:07:00,
2013-07-29 00:12:00,55.9,41.0,29.14,North,0,0.0,0.0,57,0.00,,,0.00,meteohub,2013-07-29 04:12:00,
2013-07-29 00:17:00,55.9,41.0,29.14,North,0,0.0,0.0,57,0.00,,,0.00,meteohub,2013-07-29 04:17:00,
2013-07-29 00:22:00,55.9,41.0,29.14,North,0,0.0,0.0,57,0.00,,,0.00,meteohub,2013-07-29 04:22:00,
2013-07-29 00:27:00,55.9,41.0,29.14,North,0,0.0,0.0,57,0.00,,,0.00,meteohub,2013-07-29 04:27:00,
2013-07-29 00:32:00,55.9,41.0,29.14,North,0,0.0,0.0,57,0.00,,,0.00,meteohub,2013-07-29 04:32:00,
2013-07-29 00:37:00,55.9,40.5,29.14,North,0,0.0,0.0,56,0.00,,,0.00,meteohub,2013-07-29 04:37:00,
2013-07-29 00:42:00,55.9,40.5,29.14,North,0,0.0,0.0,56,0.00,,,0.00,meteohub,2013-07-29 04:42:00,
2013-07-29 00:48:00,55.9,40.5,29.14,North,0,0.0,0.0,56,0.00,,,0.00,meteohub,2013-07-29 04:48:00,
2013-07-29 00:53:00,55.9,40.5,29.14,North,0,0.0,0.0,56,0.00,,,0.00,meteohub,2013-07-29 04:53:00,
2013-07-29 00:58:00,55.9,40.5,29.14,North,0,0.0,0.0,56,0.00,,,0.00,meteohub,2013-07-29 04:58:00,
2013-07-29 01:03:00,56.1,40.6,29.14,North,0,0.0,0.0,56,0.00,,,0.00,meteohub,2013-07-29 05:03:00,
2013-07-29 01:08:00,55.9,40.5,29.14,North,0,0.0,0.0,56,0.00,,,0.00,meteohub,2013-07-29 05:08:00,
2013-07-29 01:13:00,56.1,40.6,29.14,North,0,0.0,0.0,56,0.00,,,0.00,meteohub,2013-07-29 05:13:00,
2013-07-29 01:18:00,55.9,40.5,29.14,North,0,0.0,0.0,56,0.00,,,0.00,meteohub,2013-07-29 05:18:00,
2013-07-29 01:23:00,55.9,40.5,29.14,North,0,0.0,0.0,56,0.00,,,0.00,meteohub,2013-07-29 05:23:00,
2013-07-29 01:28:00,55.9,40.5,29.14,North,0,0.0,0.0,56,0.00,,,0.00,meteohub,2013-07-29 05:28:00,
2013-07-29 01:33:00,55.9,40.5,29.14,North,0,0.0,0.0,56,0.00,,,0.00,meteohub,2013-07-29 05:33:00,
2013-07-29 01:38:00,55.9,40.5,29.14,North,0,0.0,0.0,56,0.00,,,0.00,meteohub,2013-07-29 05:38:00,
2013-07-29 01:43:00,55.9,40.5,29.14,North,0,0.0,0.0,56,0.00,,,0.00,meteohub,2013-07-29 05:43:00,
2013-07-29 01:48:00,55.9,40.5,29.14,North,0,0.0,0.0,56,0.00,,,0.00,meteohub,2013-07-29 05:48:00,
2013-07-29 01:53:00,55.9,40.5,29.14,North,0,0.0,0.0,56,0.00,,,0.00,meteohub,2013-07-29 05:53:00,
2013-07-29 01:58:00,55.9,40.5,29.14,North,0,0.0,0.0,56,0.00,,,0.00,meteohub,2013-07-29 05:58:00,
2013-07-29 02:03:00,55.9,40.5,29.14,North,0,0.0,0.0,56,0.00,,,0.00,meteohub,2013-07-29 06:03:00,
2013-07-29 02:08:00,55.9,40.5,29.14,North,0,0.0,0.0,56,0.00,,,0.00,meteohub,2013-07-29 06:08:00,
2013-07-29 02:13:00,55.9,40.5,29.14,North,0,0.0,0.0,56,0.00,,,0.00,meteohub,2013-07-29 06:13:00,
2013-07-29 02:18:00,55.9,40.5,29.14,North,0,0.0,0.0,56,0.00,,,0.00,meteohub,2013-07-29 06:18:00,
2013-07-29 02:23:00,55.9,41.0,29.14,North,0,0.0,0.0,57,0.00,,,0.00,meteohub,2013-07-29 06:23:00,
2013-07-29 02:28:00,55.9,41.0,29.14,North,0,0.0,0.0,57,0.00,,,0.00,meteohub,2013-07-29 06:28:00,
2013-07-29 02:33:00,55.8,40.8,29.14,North,0,0.0,0.0,57,0.00,,,0.00,meteohub,2013-07-29 06:33:00,
2013-07-29 02:38:00,55.6,40.6,29.14,North,0,0.0,0.0,57,0.00,,,0.00,meteohub,2013-07-29 06:38:00,
2013-07-29 02:43:00,55.6,40.6,29.14,North,0,0.0,0.0,57,0.00,,,0.00,meteohub,2013-07-29 06:43:00,
2013-07-29 02:48:00,55.4,40.5,29.14,North,0,0.0,0.0,57,0.00,,,0.00,meteohub,2013-07-29 06:48:00,
2013-07-29 02:53:00,55.2,40.3,29.14,North,0,0.0,0.0,57,0.00,,,0.00,meteohub,2013-07-29 06:53:00,
2013-07-29 02:58:00,55.0,40.1,29.14,North,0,0.0,0.0,57,0.00,,,0.00,meteohub,2013-07-29 06:58:00,
2013-07-29 03:03:00,54.9,40.3,29.14,North,0,0.0,0.0,58,0.00,,,0.00,meteohub,2013-07-29 07:03:00,
2013-07-29 03:08:00,54.7,40.3,29.14,North,0,0.0,0.0,58,0.00,,,0.00,meteohub,2013-07-29 07:08:00,
2013-07-29 03:13:00,54.5,40.1,29.14,North,0,0.0,0.0,58,0.00,,,0.00,meteohub,2013-07-29 07:13:00,
2013-07-29 03:18:00,54.3,39.9,29.14,North,0,0.0,0.0,58,0.00,,,0.00,meteohub,2013-07-29 07:18:00,
2013-07-29 03:23:00,54.1,39.7,29.14,North,0,0.0,0.0,58,0.00,,,0.00,meteohub,2013-07-29 07:23:00,
2013-07-29 03:28:00,54.1,39.7,29.14,North,0,0.0,0.0,58,0.00,,,0.00,meteohub,2013-07-29 07:28:00,
2013-07-29 03:33:00,54.0,39.6,29.14,North,0,0.0,0.0,58,0.00,,,0.00,meteohub,2013-07-29 07:33:00,
2013-07-29 03:38:00,54.0,39.6,29.14,North,0,0.0,0.0,58,0.00,,,0.00,meteohub,2013-07-29 07:38:00,
2013-07-29 03:43:00,53.8,39.4,29.14,North,0,0.0,0.0,58,0.00,,,0.00,meteohub,2013-07-29 07:43:00,
2013-07-29 03:48:00,53.8,39.4,29.14,North,0,0.0,0.0,58,0.00,,,0.00,meteohub,2013-07-29 07:48:00,
2013-07-29 03:53:00,53.6,39.2,29.14,North,0,0.0,0.0,58,0.00,,,0.00,meteohub,2013-07-29 07:53:00,
2013-07-29 03:58:00,53.6,39.2,29.14,North,0,0.0,0.0,58,0.00,,,0.00,meteohub,2013-07-29 07:58:00,
2013-07-29 04:03:00,53.4,39.0,29.14,North,0,0.0,0.0,58,0.00,,,0.00,meteohub,2013-07-29 08:03:00,
2013-07-29 04:08:00,53.4,39.0,29.14,North,0,0.0,0.0,58,0.00,,,0.00,meteohub,2013-07-29 08:08:00,
2013-07-29 04:13:00,53.4,38.5,29.14,North,0,0.0,0.0,57,0.00,,,0.00,meteohub,2013-07-29 08:13:00,
2013-07-29 04:18:00,53.4,38.5,29.14,North,0,0.0,0.0,57,0.00,,,0.00,meteohub,2013-07-29 08:18:00,
2013-07-29 04:23:00,53.2,38.5,29.14,North,0,0.0,0.0,57,0.00,,,0.00,meteohub,2013-07-29 08:23:00,
2013-07-29 04:28:00,53.2,38.5,29.14,North,0,0.0,0.0,57,0.00,,,0.00,meteohub,2013-07-29 08:28:00,
2013-07-29 04:33:00,53.2,38.5,29.14,North,0,0.0,0.0,57,0.00,,,0.00,meteohub,2013-07-29 08:33:00,
2013-07-29 04:38:00,53.4,38.5,29.14,North,0,0.0,0.0,57,0.00,,,0.00,meteohub,2013-07-29 08:38:00,
2013-07-29 04:43:00,53.4,38.5,29.14,North,0,0.0,0.0,57,0.00,,,0.00,meteohub,2013-07-29 08:43:00,
2013-07-29 04:48:00,53.2,38.5,29.14,North,0,0.0,0.0,57,0.00,,,0.00,meteohub,2013-07-29 08:48:00,
2013-07-29 04:54:00,53.4,38.5,29.14,North,0,0.0,0.0,57,0.00,,,0.00,meteohub,2013-07-29 08:54:00,
2013-07-29 04:59:00,53.4,38.5,29.14,North,0,0.0,0.0,57,0.00,,,0.00,meteohub,2013-07-29 08:59:00,
2013-07-29 05:04:00,53.4,38.5,29.14,North,0,0.0,0.0,57,0.00,,,0.00,meteohub,2013-07-29 09:04:00,
2013-07-29 05:09:00,53.4,38.5,29.14,North,0,0.0,0.0,57,0.00,,,0.00,meteohub,2013-07-29 09:09:00,
2013-07-29 05:14:00,53.4,38.5,29.14,North,0,0.0,0.0,57,0.00,,,0.00,meteohub,2013-07-29 09:14:00,
2013-07-29 05:19:00,53.6,38.3,29.14,North,0,0.0,0.0,56,0.00,,,0.00,meteohub,2013-07-29 09:19:00,
2013-07-29 05:24:00,53.8,38.5,29.14,North,0,0.0,0.0,56,0.00,,,0.00,meteohub,2013-07-29 09:24:00,
2013-07-29 05:29:00,54.0,38.7,29.14,North,0,0.0,0.0,56,0.00,,,0.00,meteohub,2013-07-29 09:29:00,
2013-07-29 05:34:00,54.1,38.8,29.14,North,0,0.0,0.0,56,0.00,,,0.00,meteohub,2013-07-29 09:34:00,
2013-07-29 05:39:00,54.1,38.8,29.14,North,0,0.0,0.0,56,0.00,,,0.00,meteohub,2013-07-29 09:39:00,
2013-07-29 05:44:00,54.3,39.0,29.14,North,0,0.0,0.0,56,0.00,,,0.00,meteohub,2013-07-29 09:44:00,
2013-07-29 05:49:00,54.5,39.2,29.14,North,0,0.0,0.0,56,0.00,,,0.00,meteohub,2013-07-29 09:49:00,
2013-07-29 05:54:00,54.5,39.2,29.14,North,0,0.0,0.0,56,0.00,,,0.00,meteohub,2013-07-29 09:54:00,
2013-07-29 05:59:00,54.5,38.7,29.14,North,0,0.0,0.0,55,0.00,,,0.00,meteohub,2013-07-29 09:59:00,
2013-07-29 06:04:00,54.7,39.4,29.14,North,0,0.0,0.0,56,0.00,,,0.00,meteohub,2013-07-29 10:04:00,
2013-07-29 06:11:00,54.7,38.8,29.14,North,0,0.0,0.0,55,0.00,,,0.00,meteohub,2013-07-29 10:11:00,
2013-07-29 06:17:00,54.9,39.0,29.14,North,0,0.0,0.0,55,0.00,,,0.00,meteohub,2013-07-29 10:17:00,
2013-07-29 06:22:00,54.9,39.0,29.14,North,0,0.0,0.0,55,0.00,,,0.00,meteohub,2013-07-29 10:22:00,
2013-07-29 06:27:00,54.9,39.0,29.14,North,0,0.0,0.0,55,0.00,,,0.00,meteohub,2013-07-29 10:27:00,
2013-07-29 06:32:00,54.7,38.8,29.14,North,0,0.0,0.0,55,0.00,,,0.00,meteohub,2013-07-29 10:32:00,
2013-07-29 06:37:00,54.7,38.8,29.14,North,0,0.0,0.0,55,0.00,,,0.00,meteohub,2013-07-29 10:37:00,
2013-07-29 06:42:00,54.7,38.8,29.14,North,0,0.0,0.0,55,0.00,,,0.00,meteohub,2013-07-29 10:42:00,
2013-07-29 06:47:00,54.5,38.7,29.14,North,0,0.0,0.0,55,0.00,,,0.00,meteohub,2013-07-29 10:47:00,
2013-07-29 06:53:00,54.5,38.7,29.14,North,0,0.0,0.0,55,0.00,,,0.00,meteohub,2013-07-29 10:53:00,
2013-07-29 06:58:00,54.5,38.7,29.14,North,0,0.0,0.0,55,0.00,,,0.00,meteohub,2013-07-29 10:58:00,
2013-07-29 07:04:00,54.5,38.7,29.14,North,0,0.0,0.0,55,0.00,,,0.00,meteohub,2013-07-29 11:04:00,
2013-07-29 07:10:00,54.5,38.7,29.14,North,0,0.0,0.0,55,0.00,,,0.00,meteohub,2013-07-29 11:10:00,
2013-07-29 07:18:00,54.7,38.8,29.14,North,0,0.0,0.0,55,0.00,,,0.00,meteohub,2013-07-29 11:18:00,
2013-07-29 07:24:00,54.7,38.8,29.14,North,0,0.0,0.0,55,0.00,,,0.00,meteohub,2013-07-29 11:24:00,
2013-07-29 07:31:00,54.9,39.0,29.14,North,0,0.0,0.0,55,0.00,,,0.00,meteohub,2013-07-29 11:31:00,
2013-07-29 07:36:00,55.2,39.4,29.14,North,0,0.0,0.0,55,0.00,,,0.00,meteohub,2013-07-29 11:36:00,
2013-07-29 07:42:00,55.0,39.2,29.14,North,0,0.0,0.0,55,0.00,,,0.00,meteohub,2013-07-29 11:42:00,
2013-07-29 07:47:00,55.0,39.2,29.14,North,0,0.0,0.0,55,0.00,,,0.00,meteohub,2013-07-29 11:47:00,
2013-07-29 07:54:00,55.2,38.8,29.14,North,0,0.0,0.0,54,0.00,,,0.00,meteohub,2013-07-29 11:54:00,
2013-07-29 08:00:00,55.6,39.2,29.14,North,0,0.0,0.0,54,0.00,,,0.00,meteohub,2013-07-29 12:00:00,
2013-07-29 08:07:00,55.8,39.4,29.14,North,0,0.0,0.0,54,0.00,,,0.00,meteohub,2013-07-29 12:07:00,
2013-07-29 08:13:00,55.9,39.6,29.14,North,0,0.0,0.0,54,0.00,,,0.00,meteohub,2013-07-29 12:13:00,
2013-07-29 08:18:00,56.3,39.9,29.14,North,0,0.0,0.0,54,0.00,,,0.00,meteohub,2013-07-29 12:18:00,
2013-07-29 08:24:00,56.5,40.1,29.14,North,0,0.0,0.0,54,0.00,,,0.00,meteohub,2013-07-29 12:24:00,
2013-07-29 08:32:00,57.0,40.5,29.14,North,0,0.0,0.0,54,0.00,,,0.00,meteohub,2013-07-29 12:32:00,
2013-07-29 08:37:00,57.2,40.6,29.14,North,0,0.0,0.0,54,0.00,,,0.00,meteohub,2013-07-29 12:37:00,
2013-07-29 08:43:00,57.2,40.6,29.14,North,0,0.0,0.0,54,0.00,,,0.00,meteohub,2013-07-29 12:43:00,
2013-07-29 08:48:00,57.4,40.8,29.14,North,0,0.0,0.0,54,0.00,,,0.00,meteohub,2013-07-29 12:48:00,
2013-07-29 08:54:00,57.6,41.0,29.14,North,0,0.0,0.0,54,0.00,,,0.00,meteohub,2013-07-29 12:54:00,
2013-07-29 09:00:00,58.1,41.0,29.14,North,0,0.0,0.0,53,0.00,,,0.00,meteohub,2013-07-29 13:00:00,
2013-07-29 09:05:00,58.5,41.4,29.14,North,0,0.0,0.0,53,0.00,,,0.00,meteohub,2013-07-29 13:05:00,
2013-07-29 09:12:00,59.0,41.9,29.14,North,0,0.0,0.0,53,0.00,,,0.00,meteohub,2013-07-29 13:12:00,
2013-07-29 09:21:00,58.8,42.3,29.14,North,0,0.0,0.0,54,0.00,,,0.00,meteohub,2013-07-29 13:21:00,
2013-07-29 09:27:00,58.5,42.4,29.14,North,0,0.0,0.0,55,0.00,,,0.00,meteohub,2013-07-29 13:27:00,
2013-07-29 09:35:00,58.5,42.8,29.14,North,0,0.0,0.0,56,0.00,,,0.00,meteohub,2013-07-29 13:35:00,
2013-07-29 09:40:00,58.5,43.3,29.14,North,0,0.0,0.0,57,0.00,,,0.00,meteohub,2013-07-29 13:40:00,
2013-07-29 09:46:00,58.5,43.7,29.14,North,0,0.0,0.0,58,0.00,,,0.00,meteohub,2013-07-29 13:46:00,
2013-07-29 09:52:00,58.1,43.3,29.14,North,0,0.0,0.0,58,0.00,,,0.00,meteohub,2013-07-29 13:52:00,
2013-07-29 09:58:00,58.1,43.3,29.14,North,0,0.0,0.0,58,0.00,,,0.00,meteohub,2013-07-29 13:58:00,
2013-07-29 10:03:00,58.1,43.9,29.14,North,0,0.0,0.0,59,0.00,,,0.00,meteohub,2013-07-29 14:03:00,
2013-07-29 12:10:00,59.0,45.5,29.14,North,0,0.0,0.0,61,0.00,,,0.00,meteohub,2013-07-29 16:10:00,
2013-07-29 12:15:00,59.0,45.5,29.14,North,0,0.0,0.0,61,0.00,,,0.00,meteohub,2013-07-29 16:15:00,
2013-07-29 12:22:00,59.0,45.5,29.14,North,0,0.0,0.0,61,0.00,,,0.00,meteohub,2013-07-29 16:22:00,
2013-07-29 12:27:00,59.0,45.5,29.14,North,0,0.0,0.0,61,0.00,,,0.00,meteohub,2013-07-29 16:27:00,
2013-07-29 12:52:00,58.8,45.3,29.14,North,0,0.0,0.0,61,0.00,,,0.00,meteohub,2013-07-29 16:52:00,
2013-07-29 12:57:00,58.6,45.3,29.14,North,0,0.0,0.0,61,0.00,,,0.00,meteohub,2013-07-29 16:57:00,
2013-07-29 13:07:00,58.8,45.3,29.14,North,0,0.0,0.0,61,0.00,,,0.00,meteohub,2013-07-29 17:07:00,
2013-07-29 13:12:00,59.0,45.5,29.14,North,0,0.0,0.0,61,0.00,,,0.00,meteohub,2013-07-29 17:12:00,
2013-07-29 13:17:00,59.2,45.3,29.14,North,0,0.0,0.0,60,0.00,,,0.00,meteohub,2013-07-29 17:17:00,
2013-07-29 13:24:00,59.2,45.3,29.14,North,0,0.0,0.0,60,0.00,,,0.00,meteohub,2013-07-29 17:24:00,
2013-07-29 13:30:00,60.6,47.1,29.14,North,0,0.0,0.0,61,0.00,,,0.00,meteohub,2013-07-29 17:30:00,
2013-07-29 13:37:00,60.6,48.0,29.14,North,0,0.0,0.0,63,0.00,,,0.00,meteohub,2013-07-29 17:37:00,
2013-07-29 13:44:00,61.0,48.4,29.14,North,0,0.0,0.0,63,0.00,,,0.00,meteohub,2013-07-29 17:44:00,
2013-07-29 13:50:00,61.0,48.4,29.14,North,0,0.0,0.0,63,0.00,,,0.00,meteohub,2013-07-29 17:50:00,
2013-07-29 13:57:00,61.0,48.4,29.14,North,0,0.0,0.0,63,0.00,,,0.00,meteohub,2013-07-29 17:57:00,
2013-07-29 14:04:00,61.0,48.4,29.14,North,0,0.0,0.0,63,0.00,,,0.00,meteohub,2013-07-29 18:04:00,
2013-07-29 14:12:00,61.2,48.4,29.14,North,0,0.0,0.0,63,0.00,,,0.00,meteohub,2013-07-29 18:12:00,
2013-07-29 14:17:00,61.5,48.7,29.14,North,0,0.0,0.0,63,0.00,,,0.00,meteohub,2013-07-29 18:17:00,
2013-07-29 14:25:00,61.7,48.9,29.14,North,0,0.0,0.0,63,0.00,,,0.00,meteohub,2013-07-29 18:25:00,
2013-07-29 14:33:00,62.8,50.0,29.14,North,0,0.0,0.0,63,0.00,,,0.00,meteohub,2013-07-29 18:33:00,
2013-07-29 14:40:00,63.0,50.2,29.14,North,0,0.0,0.0,63,0.00,,,0.00,meteohub,2013-07-29 18:40:00,
2013-07-29 14:46:00,63.9,51.4,29.14,North,0,0.0,0.0,64,0.00,,,0.00,meteohub,2013-07-29 18:46:00,
2013-07-29 14:54:00,64.8,52.3,29.14,North,0,0.0,0.0,64,0.00,,,0.00,meteohub,2013-07-29 18:54:00,
2013-07-29 15:00:00,65.1,52.7,29.14,North,0,0.0,0.0,64,0.00,,,0.00,meteohub,2013-07-29 19:00:00,
2013-07-29 15:07:00,65.8,53.2,29.14,North,0,0.0,0.0,64,0.00,,,0.00,meteohub,2013-07-29 19:07:00,
2013-07-29 15:12:00,66.6,54.5,29.14,North,0,0.0,0.0,65,0.00,,,0.00,meteohub,2013-07-29 19:12:00,
2013-07-29 15:17:00,66.7,54.7,29.14,North,0,0.0,0.0,65,0.00,,,0.00,meteohub,2013-07-29 19:17:00,
2013-07-29 15:22:00,66.7,54.7,29.14,North,0,0.0,0.0,65,0.00,,,0.00,meteohub,2013-07-29 19:22:00,
2013-07-29 15:30:00,66.9,54.9,29.14,North,0,0.0,0.0,65,0.00,,,0.00,meteohub,2013-07-29 19:30:00,
2013-07-29 15:35:00,66.9,54.9,29.14,North,0,0.0,0.0,65,0.00,,,0.00,meteohub,2013-07-29 19:35:00,
2013-07-29 15:40:00,66.7,54.7,29.14,North,0,0.0,0.0,65,0.00,,,0.00,meteohub,2013-07-29 19:40:00,
2013-07-29 15:47:00,66.7,54.7,29.14,North,0,0.0,0.0,65,0.00,,,0.00,meteohub,2013-07-29 19:47:00,
2013-07-29 15:52:00,66.7,54.7,29.14,North,0,0.0,0.0,65,0.00,,,0.00,meteohub,2013-07-29 19:52:00,
2013-07-29 15:57:00,67.5,55.2,29.14,North,0,0.0,0.0,65,0.00,,,0.00,meteohub,2013-07-29 19:57:00,
2013-07-29 16:02:00,67.5,55.2,29.14,North,0,0.0,0.0,65,0.00,,,0.00,meteohub,2013-07-29 20:02:00,
2013-07-29 16:07:00,67.6,55.4,29.14,North,0,0.0,0.0,65,0.00,,,0.00,meteohub,2013-07-29 20:07:00,
2013-07-29 16:12:00,68.0,55.8,29.14,North,0,0.0,0.0,65,0.00,,,0.00,meteohub,2013-07-29 20:12:00,
2013-07-29 16:20:00,68.2,55.9,29.14,North,0,0.0,0.0,65,0.00,,,0.00,meteohub,2013-07-29 20:20:00,
2013-07-29 16:27:00,69.1,56.8,29.14,North,0,0.0,0.0,65,0.00,,,0.00,meteohub,2013-07-29 20:27:00,
2013-07-29 16:35:00,69.3,57.0,29.14,North,0,0.0,0.0,65,0.00,,,0.00,meteohub,2013-07-29 20:35:00,
2013-07-29 16:40:00,69.6,57.4,29.14,North,0,0.0,0.0,65,0.00,,,0.00,meteohub,2013-07-29 20:40:00,
2013-07-29 16:45:00,69.6,57.4,29.14,North,0,0.0,0.0,65,0.00,,,0.00,meteohub,2013-07-29 20:45:00,
2013-07-29 16:50:00,69.4,57.2,29.14,North,0,0.0,0.0,65,0.00,,,0.00,meteohub,2013-07-29 20:50:00,
2013-07-29 16:58:00,69.6,57.4,29.14,North,0,0.0,0.0,65,0.00,,,0.00,meteohub,2013-07-29 20:58:00,
2013-07-29 17:03:00,69.6,57.7,29.14,North,0,0.0,0.0,66,0.00,,,0.00,meteohub,2013-07-29 21:03:00,
2013-07-29 17:09:00,69.8,58.3,29.14,North,0,0.0,0.0,67,0.00,,,0.00,meteohub,2013-07-29 21:09:00,
2013-07-29 17:16:00,70.0,58.1,29.14,North,0,0.0,0.0,66,0.00,,,0.00,meteohub,2013-07-29 21:16:00,
2013-07-29 17:21:00,69.6,57.7,29.14,North,0,0.0,0.0,66,0.00,,,0.00,meteohub,2013-07-29 21:21:00,
2013-07-29 17:26:00,69.4,57.6,29.14,North,0,0.0,0.0,66,0.00,,,0.00,meteohub,2013-07-29 21:26:00,
2013-07-29 17:32:00,69.6,57.7,29.14,North,0,0.0,0.0,66,0.00,,,0.00,meteohub,2013-07-29 21:32:00,
2013-07-29 17:37:00,69.8,57.9,29.14,North,0,0.0,0.0,66,0.00,,,0.00,meteohub,2013-07-29 21:37:00,
2013-07-29 17:44:00,70.0,58.5,29.14,North,0,0.0,0.0,67,0.00,,,0.00,meteohub,2013-07-29 21:44:00,
2013-07-29 17:49:00,70.3,58.5,29.14,North,0,0.0,0.0,66,0.00,,,0.00,meteohub,2013-07-29 21:49:00,
2013-07-29 17:56:00,70.5,59.0,29.14,North,0,0.0,0.0,67,0.00,,,0.00,meteohub,2013-07-29 21:56:00,
2013-07-29 18:01:00,70.3,58.5,29.14,North,0,0.0,0.0,66,0.00,,,0.00,meteohub,2013-07-29 22:01:00,
2013-07-29 18:06:00,70.3,58.8,29.14,North,0,0.0,0.0,67,0.00,,,0.00,meteohub,2013-07-29 22:06:00,
2013-07-29 18:13:00,70.3,58.5,29.14,North,0,0.0,0.0,66,0.00,,,0.00,meteohub,2013-07-29 22:13:00,
2013-07-29 18:18:00,70.3,58.5,29.14,North,0,0.0,0.0,66,0.00,,,0.00,meteohub,2013-07-29 22:18:00,
2013-07-29 18:23:00,70.3,58.1,29.14,North,0,0.0,0.0,65,0.00,,,0.00,meteohub,2013-07-29 22:23:00,
2013-07-29 18:29:00,70.2,58.3,29.14,North,0,0.0,0.0,66,0.00,,,0.00,meteohub,2013-07-29 22:29:00,
2013-07-29 18:36:00,70.0,58.1,29.14,North,0,0.0,0.0,66,0.00,,,0.00,meteohub,2013-07-29 22:36:00,
2013-07-29 18:42:00,70.2,57.9,29.14,North,0,0.0,0.0,65,0.00,,,0.00,meteohub,2013-07-29 22:42:00,
2013-07-29 18:48:00,69.8,57.9,29.14,North,0,0.0,0.0,66,0.00,,,0.00,meteohub,2013-07-29 22:48:00,
2013-07-29 18:53:00,69.4,57.6,29.14,North,0,0.0,0.0,66,0.00,,,0.00,meteohub,2013-07-29 22:53:00,
2013-07-29 19:01:00,69.1,57.2,29.14,North,0,0.0,0.0,66,0.00,,,0.00,meteohub,2013-07-29 23:01:00,
2013-07-29 19:07:00,68.7,57.4,29.14,North,0,0.0,0.0,67,0.00,,,0.00,meteohub,2013-07-29 23:07:00,
2013-07-29 19:12:00,68.0,56.7,29.14,North,0,0.0,0.0,67,0.00,,,0.00,meteohub,2013-07-29 23:12:00,
2013-07-29 19:18:00,67.6,56.7,29.14,North,0,0.0,0.0,68,0.00,,,0.00,meteohub,2013-07-29 23:18:00,
2013-07-29 19:25:00,66.9,56.8,29.14,North,0,0.0,0.0,70,0.00,,,0.00,meteohub,2013-07-29 23:25:00,
2013-07-29 19:30:00,66.6,56.5,29.14,North,0,0.0,0.0,70,0.00,,,0.00,meteohub,2013-07-29 23:30:00,
2013-07-29 19:37:00,66.0,56.3,29.14,North,0,0.0,0.0,71,0.00,,,0.00,meteohub,2013-07-29 23:37:00,
2013-07-29 19:42:00,66.0,56.3,29.14,North,0,0.0,0.0,71,0.00,,,0.00,meteohub,2013-07-29 23:42:00,
2013-07-29 19:48:00,65.7,55.9,29.14,North,0,0.0,0.0,71,0.00,,,0.00,meteohub,2013-07-29 23:48:00,
2013-07-29 19:54:00,65.3,55.6,29.14,North,0,0.0,0.0,71,0.00,,,0.00,meteohub,2013-07-29 23:54:00,
2013-07-29 19:59:00,64.8,55.6,29.14,North,0,0.0,0.0,72,0.00,,,0.00,meteohub,2013-07-29 23:59:00,
2013-07-29 20:05:00,64.8,55.6,29.14,North,0,0.0,0.0,72,0.00,,,0.00,meteohub,2013-07-30 00:05:00,
2013-07-29 20:10:00,64.4,55.6,29.14,North,0,0.0,0.0,73,0.00,,,0.00,meteohub,2013-07-30 00:10:00,
2013-07-29 20:17:00,63.9,55.0,29.14,North,0,0.0,0.0,73,0.00,,,0.00,meteohub,2013-07-30 00:17:00,
2013-07-29 20:22:00,63.7,54.9,29.14,North,0,0.0,0.0,73,0.00,,,0.00,meteohub,2013-07-30 00:22:00,
2013-07-29 20:30:00,63.7,54.9,29.14,North,0,0.0,0.0,73,0.00,,,0.00,meteohub,2013-07-30 00:30:00,
2013-07-29 20:37:00,63.0,54.1,29.14,North,0,0.0,0.0,73,0.00,,,0.00,meteohub,2013-07-30 00:37:00,
2013-07-29 20:42:00,62.8,54.3,29.14,North,0,0.0,0.0,74,0.00,,,0.00,meteohub,2013-07-30 00:42:00,
2013-07-29 20:47:00,62.6,54.1,29.14,North,0,0.0,0.0,74,0.00,,,0.00,meteohub,2013-07-30 00:47:00,
2013-07-29 20:52:00,62.4,54.0,29.14,North,0,0.0,0.0,74,0.00,,,0.00,meteohub,2013-07-30 00:52:00,
2013-07-29 20:58:00,62.1,53.6,29.14,North,0,0.0,0.0,74,0.00,,,0.00,meteohub,2013-07-30 00:58:00,
2013-07-29 21:05:00,61.9,53.1,29.14,North,0,0.0,0.0,73,0.00,,,0.00,meteohub,2013-07-30 01:05:00,
2013-07-29 21:10:00,61.5,52.7,29.14,North,0,0.0,0.0,73,0.00,,,0.00,meteohub,2013-07-30 01:10:00,
2013-07-29 21:16:00,61.3,52.7,29.14,North,0,0.0,0.0,73,0.00,,,0.00,meteohub,2013-07-30 01:16:00,
2013-07-29 21:21:00,61.0,52.3,29.14,North,0,0.0,0.0,73,0.00,,,0.00,meteohub,2013-07-30 01:21:00,
2013-07-29 21:27:00,60.6,51.6,29.14,North,0,0.0,0.0,72,0.00,,,0.00,meteohub,2013-07-30 01:27:00,
2013-07-29 21:32:00,60.3,51.3,29.14,North,0,0.0,0.0,72,0.00,,,0.00,meteohub,2013-07-30 01:32:00,
2013-07-29 21:37:00,60.1,50.7,29.14,North,0,0.0,0.0,71,0.00,,,0.00,meteohub,2013-07-30 01:37:00,
2013-07-29 21:42:00,59.5,50.2,29.14,North,0,0.0,0.0,71,0.00,,,0.00,meteohub,2013-07-30 01:42:00,
2013-07-29 21:47:00,59.0,48.9,29.14,North,0,0.0,0.0,69,0.00,,,0.00,meteohub,2013-07-30 01:47:00,
2013-07-29 21:55:00,59.0,48.4,29.14,North,0,0.0,0.0,68,0.00,,,0.00,meteohub,2013-07-30 01:55:00,
2013-07-29 22:02:00,58.8,47.8,29.14,North,0,0.0,0.0,67,0.00,,,0.00,meteohub,2013-07-30 02:02:00,
2013-07-29 22:07:00,58.5,46.8,29.14,North,0,0.0,0.0,65,0.00,,,0.00,meteohub,2013-07-30 02:07:00,
2013-07-29 22:13:00,58.3,46.6,29.14,North,0,0.0,0.0,65,0.00,,,0.00,meteohub,2013-07-30 02:13:00,
2013-07-29 22:19:00,57.9,45.9,29.14,North,0,0.0,0.0,64,0.00,,,0.00,meteohub,2013-07-30 02:19:00,
2013-07-29 22:27:00,57.9,45.0,29.14,North,0,0.0,0.0,62,0.00,,,0.00,meteohub,2013-07-30 02:27:00,
2013-07-29 22:32:00,57.7,44.4,29.14,North,0,0.0,0.0,61,0.00,,,0.00,meteohub,2013-07-30 02:32:00,
2013-07-29 22:37:00,57.7,44.4,29.14,North,0,0.0,0.0,61,0.00,,,0.00,meteohub,2013-07-30 02:37:00,
2013-07-29 22:45:00,57.6,44.2,29.14,North,0,0.0,0.0,61,0.00,,,0.00,meteohub,2013-07-30 02:45:00,
2013-07-29 22:50:00,57.6,43.3,29.14,North,0,0.0,0.0,59,0.00,,,0.00,meteohub,2013-07-30 02:50:00,
2013-07-29 22:56:00,57.6,43.0,29.14,North,0,0.0,0.0,58,0.00,,,0.00,meteohub,2013-07-30 02:56:00,
2013-07-29 23:03:00,57.6,42.4,29.14,North,0,0.0,0.0,57,0.00,,,0.00,meteohub,2013-07-30 03:03:00,
2013-07-29 23:08:00,57.6,42.4,29.14,North,0,0.0,0.0,57,0.00,,,0.00,meteohub,2013-07-30 03:08:00,
2013-07-29 23:15:00,57.6,42.4,29.14,North,0,0.0,0.0,57,0.00,,,0.00,meteohub,2013-07-30 03:15:00,
2013-07-29 23:22:00,57.4,42.3,29.14,North,0,0.0,0.0,57,0.00,,,0.00,meteohub,2013-07-30 03:22:00,
2013-07-29 23:27:00,57.4,42.3,29.14,North,0,0.0,0.0,57,0.00,,,0.00,meteohub,2013-07-30 03:27:00,
2013-07-29 23:29:00,57.4,42.3,29.14,North,0,0.0,0.0,57,0.00,,,0.00,meteohub,2013-07-30 03:29:00,
2013-07-29 23:34:00,57.2,41.7,29.14,North,0,0.0,0.0,56,0.00,,,0.00,meteohub,2013-07-30 03:34:00,
2013-07-29 23:39:00,57.2,41.7,29.14,North,0,0.0,0.0,56,0.00,,,0.00,meteohub,2013-07-30 03:39:00,
2013-07-29 23:45:00,56.8,41.4,29.14,North,0,0.0,0.0,56,0.00,,,0.00,meteohub,2013-07-30 03:45:00,
2013-07-29 23:53:00,56.8,41.4,29.14,North,0,0.0,0.0,56,0.00,,,0.00,meteohub,2013-07-30 03:53:00,